[Date Prev][Date Next][Thread Prev][Thread Next] - [Date Index][Thread Index][Author Index]

2 Line ISS Keps 7-16 ~ 20 sec update frm Yesterdays keps~



ISS
1 25544U 98067A   01197.19122307  .00034219  00000-0  36771-3 0  2161
2 25544  51.5789 301.8749 0015946 284.1498 164.5186 15.63272846151619


----
Via the sarex mailing list at AMSAT.ORG courtesy of AMSAT-NA.
To unsubscribe, send "unsubscribe sarex" to Majordomo@amsat.org



AMSAT Top AMSAT Home